Location: Complexul Astronomic Baia Mare
(47.6577°N, 23.5639°E)
Time: 20:02:09
(UTC+03:00)

ISS - Pass Details

Date: 04 March 2017
Orbit: 399 x 409 km, 51.6° (Epoch: 27 March)

Event Time Altitude Azimuth Distance (km) Brightness Sun altitude
Exits shadow 05:54:10 - 211° (SSW) 1,700 -1.0 -12.0°
Reaches altitude 10° 05:54:46 10° 207° (SSW) 1,470 -1.3 -11.9°
Maximum altitude 05:57:44 31° 143° (SE) 748 -2.1 -11.4°
Drops below altitude 10° 06:00:43 10° 80° (E) 1,480 0.6 -10.9°
Sets 06:02:56 0° 69° (ENE) 2,345 1.6 -10.5°
